CW4427 Weather Reports


Display with metric or nautical units.
time (UTC)temp
F
wind
direction
speed
MPH
gust
MPH
rain 1hr
in
rain 24hr
in
rain mn
in
humidity
%
barometer
mb
20260509134855 70 315 0.0 4.0 0.00 0.00 0.00 72 1011.1
20260509134355 71 9 3.0 4.0 0.00 0.00 0.00 73 1011.1
20260509133855 70 286 1.0 4.0 0.00 0.00 0.00 72 1011.1
20260509133355 70 235 2.0 4.0 0.00 0.00 0.00 75 1011.0
20260509132855 70 315 0.0 3.0 0.00 0.00 0.00 75 1011.0
20260509132356 69 290 1.0 3.0 0.00 0.00 0.00 77 1010.9
20260509131355 68 280 0.0 2.0 0.00 0.00 0.00 79 1011.0
20260509130355 67 254 0.0 3.0 0.00 0.00 0.00 79 1010.8
20260509125855 66 265 0.0 0.0 0.00 0.00 0.00 81 1010.8
20260509125355 65 176 0.0 0.0 0.00 0.00 0.00 82 1010.8
20260509124355 65 176 0.0 4.0 0.00 0.00 0.00 82 1010.7
20260509123855 64 165 0.0 3.0 0.00 0.00 0.00 82 1010.7
20260509123356 64 165 0.0 3.0 0.00 0.00 0.00 85 1010.6
20260509122355 63 262 0.0 5.0 0.00 0.00 0.00 86 1010.5
20260509121855 62 177 2.0 5.0 0.00 0.00 0.00 86 1010.4
20260509121355 62 200 2.0 4.0 0.00 0.00 0.00 87 1010.4
20260509120855 61 150 1.0 4.0 0.00 0.00 0.00 88 1010.4
20260509120355 61 192 2.0 4.0 0.00 0.00 0.00 89 1010.4
20260509115855 60 175 2.0 5.0 0.00 0.00 0.00 89 1010.4
20260509115355 60 183 2.0 6.0 0.00 0.00 0.00 90 1010.3
20260509114855 59 203 1.0 6.0 0.00 0.00 0.00 90 1010.2
20260509113855 59 238 4.0 6.0 0.00 0.00 0.00 89 1010.3
20260509113355 59 196 4.0 6.0 0.00 0.00 0.00 90 1010.2
20260509112855 59 214 3.0 5.0 0.00 0.00 0.00 89 1010.2
20260509112355 59 209 0.0 4.0 0.00 0.00 0.00 90 1010.0
20260509111855 59 205 2.0 5.0 0.00 0.00 0.00 90 1009.8
20260509110854 59 180 3.0 7.0 0.00 0.00 0.00 90 1009.7
20260509110355 59 194 3.0 7.0 0.00 0.00 0.00 90 1009.4
20260509105854 59 180 4.0 5.0 0.00 0.00 0.00 89 1009.4
20260509105354 59 190 3.0 4.0 0.00 0.00 0.00 89 1009.5
20260509104854 59 249 1.0 4.0 0.00 0.00 0.00 89 1009.7
20260509104354 59 198 0.0 2.0 0.00 0.00 0.00 89 1009.7
20260509103854 59 171 1.0 3.0 0.00 0.00 0.00 89 1009.6
20260509103354 59 207 0.0 4.0 0.00 0.00 0.00 89 1009.6
20260509102854 59 207 3.0 6.0 0.00 0.00 0.00 89 1009.5
20260509102354 59 194 1.0 6.0 0.00 0.00 0.00 89 1009.6
20260509101854 58 205 1.0 5.0 0.00 0.00 0.00 89 1009.7
20260509101354 58 191 2.0 4.0 0.00 0.00 0.00 89 1009.6
20260509100854 58 182 2.0 4.0 0.00 0.00 0.00 90 1009.7
20260509100353 58 187 1.0 5.0 0.00 0.00 0.00 90 1009.6
20260509095854 58 186 0.0 5.0 0.00 0.00 0.00 90 1009.8
20260509095353 58 196 3.0 3.0 0.00 0.00 0.00 90 1010.1
20260509094854 58 196 0.0 2.0 0.00 0.00 0.00 90 1010.0
20260509094354 57 196 0.0 0.0 0.00 0.00 0.00 91 1010.2
20260509093853 57 196 0.0 0.0 0.00 0.00 0.00 90 1010.2
20260509093353 57 196 0.0 0.0 0.00 0.00 0.00 90 1010.0
20260509092854 57 196 0.0 0.0 0.00 0.00 0.00 90 1010.1
20260509092354 57 196 0.0 0.0 0.00 0.00 0.00 89 1010.1
20260509091353 57 196 0.0 0.0 0.00 0.00 0.00 89 1009.8
20260509090353 58 196 0.0 0.0 0.00 0.00 0.00 88 1009.6
20260509085853 58 196 0.0 0.0 0.00 0.00 0.00 87 1009.7
20260509085353 58 196 0.0 0.0 0.00 0.00 0.00 87 1009.6
20260509084853 59 196 0.0 0.0 0.00 0.00 0.00 87 1009.7
20260509083853 59 196 0.0 0.0 0.00 0.00 0.00 86 1009.8
20260509083353 59 196 0.0 0.0 0.00 0.00 0.00 86 1009.7
20260509082853 59 196 0.0 0.0 0.00 0.00 0.00 84 1009.6
20260509082353 60 196 0.0 0.0 0.00 0.00 0.00 84 1009.6
20260509081853 60 196 0.0 0.0 0.00 0.00 0.00 84 1009.6
20260509081353 60 196 0.0 2.0 0.00 0.00 0.00 83 1009.7
20260509080853 60 196 0.0 4.0 0.00 0.00 0.00 83 1009.6
20260509080353 61 196 2.0 5.0 0.00 0.00 0.00 83 1009.5
20260509075352 61 180 1.0 4.0 0.00 0.00 0.00 83 1009.5
20260509073853 61 196 3.0 5.0 0.00 0.00 0.00 82 1009.5
20260509072853 61 190 2.0 5.0 0.00 0.00 0.00 81 1009.5
20260509072353 61 193 0.0 5.0 0.00 0.00 0.00 81 1009.3
20260509071853 61 193 3.0 4.0 0.00 0.00 0.00 81 1009.2
20260509071352 61 188 1.0 4.0 0.00 0.00 0.00 81 1009.3
20260509070853 62 181 1.0 3.0 0.00 0.00 0.00 81 1009.4
20260509070353 62 172 1.0 2.0 0.00 0.00 0.00 81 1009.9
20260509065853 61 172 0.0 0.0 0.00 0.00 0.00 81 1009.6
20260509064853 62 172 0.0 0.0 0.00 0.00 0.00 80 1009.8
20260509064353 62 172 0.0 0.0 0.00 0.00 0.00 80 1009.8
20260509063852 62 172 0.0 3.0 0.00 0.00 0.00 79 1009.9
20260509063353 62 172 0.0 4.0 0.00 0.00 0.00 79 1009.8
20260509062853 62 171 2.0 4.0 0.00 0.00 0.00 79 1009.7
20260509062352 62 190 2.0 5.0 0.00 0.00 0.00 79 1009.9
20260509061852 62 221 1.0 9.0 0.00 0.00 0.00 78 1010.0
20260509060852 62 178 3.0 10.0 0.00 0.00 0.00 79 1009.9
20260509055853 62 195 3.0 9.0 0.00 0.00 0.00 79 1010.1
20260509055352 62 182 2.0 5.0 0.00 0.00 0.00 79 1010.1
20260509054352 62 209 3.0 7.0 0.00 0.00 0.00 79 1010.0
20260509053852 62 184 4.0 7.0 0.00 0.00 0.00 78 1010.2
20260509053352 62 200 4.0 6.0 0.00 0.00 0.00 78 1010.2
20260509052853 62 215 3.0 7.0 0.00 0.00 0.00 78 1010.4
20260509052352 62 173 6.0 7.0 0.00 0.00 0.00 78 1010.5
20260509051852 62 171 6.0 6.0 0.00 0.00 0.00 78 1010.7
20260509051352 62 190 2.0 5.0 0.00 0.00 0.00 78 1010.9
20260509050852 63 213 2.0 5.0 0.00 0.00 0.00 77 1011.0
20260509050352 62 200 3.0 5.0 0.00 0.00 0.00 77 1011.0
20260509045352 63 182 2.0 6.0 0.00 0.00 0.00 76 1010.9
20260509044852 63 209 1.0 9.0 0.00 0.00 0.00 76 1011.0
20260509044353 63 192 6.0 9.0 0.00 0.00 0.00 76 1011.0
20260509043852 63 195 2.0 8.0 0.00 0.00 0.00 76 1011.1
20260509043353 63 173 2.0 6.0 0.00 0.00 0.00 76 1011.4
20260509042923 63 179 0.0 5.0 0.00 0.00 0.00 76 1011.5
20260509042353 63 190 0.0 5.0 0.00 0.00 0.00 76 1011.6
20260509041852 63 188 2.0 4.0 0.00 0.00 0.00 76 1011.5
20260509041422 63 199 0.0 4.0 0.00 0.00 0.00 75 1011.6
20260509040922 63 169 1.0 4.0 0.00 0.00 0.00 75 1011.5
20260509040422 63 202 0.0 6.0 0.00 0.00 0.00 75 1011.2
20260509035922 63 184 3.0 6.0 0.00 0.00 0.00 75 1011.0
20260509035422 63 186 3.0 4.0 0.00 0.00 0.00 75 1011.0
20260509034922 63 165 2.0 3.0 0.00 0.00 0.00 74 1011.1
20260509034422 64 198 1.0 4.0 0.00 0.00 0.00 74 1011.2
20260509033922 63 172 0.0 4.0 0.00 0.00 0.00 74 1011.1
20260509032922 63 190 2.0 4.0 0.00 0.00 0.00 74 1010.8
20260509031922 64 187 0.0 5.0 0.00 0.00 0.00 73 1010.9
20260509031422 64 187 0.0 5.0 0.00 0.00 0.00 73 1010.7
20260509030421 64 139 0.0 2.0 0.00 0.00 0.00 72 1010.8
20260509025421 64 217 0.0 2.0 0.00 0.00 0.00 71 1010.7
20260509024921 65 150 0.0 2.0 0.00 0.00 0.00 70 1010.9
20260509024421 65 150 0.0 2.0 0.00 0.00 0.00 69 1010.9
20260509023921 65 173 0.0 1.0 0.00 0.00 0.00 69 1011.0
20260509023421 66 218 0.0 3.0 0.00 0.00 0.00 68 1011.1
20260509022922 66 250 0.0 5.0 0.00 0.00 0.00 68 1011.1
20260509022421 66 187 2.0 5.0 0.00 0.00 0.00 67 1010.9
20260509021921 66 158 2.0 7.0 0.00 0.00 0.00 66 1011.0
20260509021421 66 194 1.0 7.0 0.00 0.00 0.00 66 1010.9
20260509020921 66 191 1.0 5.0 0.00 0.00 0.00 65 1010.8
20260509020421 66 190 0.0 5.0 0.00 0.00 0.00 64 1010.7
20260509015921 67 210 0.0 4.0 0.00 0.00 0.00 63 1010.6
20260509015421 67 181 0.0 4.0 0.00 0.00 0.00 62 1010.6
20260509014921 67 188 0.0 5.0 0.00 0.00 0.00 61 1010.5
20260509014421 67 167 0.0 5.0 0.00 0.00 0.00 62 1010.4
20260509013921 67 162 1.0 2.0 0.00 0.00 0.00 62 1010.4
20260509013421 67 162 0.0 0.0 0.00 0.00 0.00 61 1010.5
20260509012921 67 162 0.0 0.0 0.00 0.00 0.00 61 1010.5
20260509012421 68 162 0.0 1.0 0.00 0.00 0.00 59 1010.4
20260509011921 68 162 0.0 3.0 0.00 0.00 0.00 59 1010.5
20260509011421 68 162 1.0 5.0 0.00 0.00 0.00 58 1010.5
20260509010921 69 206 2.0 5.0 0.00 0.00 0.00 58 1010.6
20260509010421 69 198 0.0 5.0 0.00 0.00 0.00 58 1010.6
20260509005921 69 198 0.0 5.0 0.00 0.00 0.00 57 1010.5
20260509004921 70 182 0.0 3.0 0.00 0.00 0.00 55 1010.5
20260509003921 71 182 0.0 6.0 0.00 0.00 0.00 54 1010.4
20260509003420 71 309 3.0 6.0 0.00 0.00 0.00 53 1010.4
20260509002920 71 209 2.0 7.0 0.00 0.00 0.00 52 1010.4
20260509002421 71 258 1.0 7.0 0.00 0.00 0.00 51 1010.4
20260509001920 71 188 2.0 8.0 0.00 0.00 0.00 51 1010.3
20260509000420 72 224 1.0 9.0 0.00 0.00 0.00 51 1010.2
20260508234920 73 189 3.0 10.0 0.00 0.00 0.00 49 1010.0
20260508234420 73 211 1.0 7.0 0.00 0.00 0.00 49 1010.1
20260508233920 73 203 5.0 7.0 0.00 0.00 0.00 49 1010.1
20260508233420 73 161 5.0 9.0 0.00 0.00 0.00 49 1010.1
20260508232420 74 169 4.0 10.0 0.00 0.00 0.00 48 1010.0
20260508230920 74 186 4.0 13.0 0.00 0.00 0.00 47 1010.2
20260508230420 74 198 5.0 10.0 0.00 0.00 0.00 46 1010.2
20260508225920 75 180 6.0 10.0 0.00 0.00 0.00 46 1010.4
20260508225420 75 200 1.0 10.0 0.00 0.00 0.00 45 1010.4
20260508224920 75 165 4.0 11.0 0.00 0.00 0.00 44 1010.3
20260508223920 75 194 0.0 8.0 0.00 0.00 0.00 45 1010.4
20260508223419 75 177 1.0 10.0 0.00 0.00 0.00 43 1010.5
20260508222920 76 298 1.0 10.0 0.00 0.00 0.00 45 1010.5
20260508222420 76 282 4.0 8.0 0.00 0.00 0.00 44 1010.6
20260508221420 76 284 3.0 15.0 0.00 0.00 0.00 43 1010.5
20260508220920 76 199 7.0 9.0 0.00 0.00 0.00 42 1010.6
20260508215920 77 196 3.0 12.0 0.00 0.00 0.00 43 1010.8
20260508215420 77 253 1.0 12.0 0.00 0.00 0.00 41 1010.9
20260508214419 77 207 3.0 11.0 0.00 0.00 0.00 45 1010.9
20260508213920 77 165 9.0 11.0 0.00 0.00 0.00 43 1011.0
20260508213420 78 205 4.0 8.0 0.00 0.00 0.00 46 1010.9
20260508212920 77 210 1.0 14.0 0.00 0.00 0.00 44 1010.9
20260508211920 78 218 3.0 12.0 0.00 0.00 0.00 43 1011.2
20260508211419 77 244 10.0 12.0 0.00 0.00 0.00 43 1011.3
20260508210920 77 225 3.0 12.0 0.00 0.00 0.00 41 1011.1
20260508210420 77 227 6.0 12.0 0.00 0.00 0.00 38 1011.2
20260508205920 78 212 2.0 10.0 0.00 0.00 0.00 40 1011.2
20260508204920 77 198 4.0 9.0 0.00 0.00 0.00 44 1011.2
20260508204419 77 301 2.0 9.0 0.00 0.00 0.00 40 1011.1
20260508203919 77 289 1.0 9.0 0.00 0.00 0.00 40 1011.3
20260508203419 77 189 1.0 9.0 0.00 0.00 0.00 41 1011.4
20260508202919 78 222 2.0 9.0 0.00 0.00 0.00 41 1011.5
20260508202420 78 236 4.0 7.0 0.00 0.00 0.00 42 1011.6
20260508201920 77 273 1.0 10.0 0.00 0.00 0.00 43 1011.7
20260508200919 78 174 8.0 9.0 0.00 0.00 0.00 41 1011.8
20260508200419 76 334 1.0 9.0 0.00 0.00 0.00 41 1011.6
20260508195919 77 188 1.0 10.0 0.00 0.00 0.00 41 1011.8
20260508194919 76 180 5.0 8.0 0.00 0.00 0.00 42 1011.9
20260508193419 76 157 0.0 11.0 0.00 0.00 0.00 44 1011.9
20260508192920 76 186 3.0 11.0 0.00 0.00 0.00 41 1011.9
20260508192420 75 197 4.0 10.0 0.00 0.00 0.00 44 1012.0
20260508191919 76 90 0.0 10.0 0.00 0.00 0.00 43 1012.2
20260508191419 75 109 2.0 8.0 0.00 0.00 0.00 44 1012.1
20260508190919 76 122 2.0 10.0 0.00 0.00 0.00 43 1012.4
20260508190419 75 273 1.0 10.0 0.00 0.00 0.00 45 1012.3
20260508185919 75 152 3.0 8.0 0.00 0.00 0.00 40 1012.4
20260508185419 76 207 5.0 8.0 0.00 0.00 0.00 44 1012.7
20260508184919 76 211 2.0 8.0 0.00 0.00 0.00 41 1012.8
20260508184419 75 158 0.0 9.0 0.00 0.00 0.00 40 1012.8
20260508183919 75 200 3.0 9.0 0.00 0.00 0.00 42 1012.9
20260508183419 75 107 1.0 12.0 0.00 0.00 0.00 42 1013.2
20260508182919 75 205 5.0 12.0 0.00 0.00 0.00 44 1013.3
20260508181919 74 173 2.0 8.0 0.00 0.00 0.00 41 1013.6
20260508181419 74 159 4.0 8.0 0.00 0.00 0.00 46 1013.8
20260508175920 74 279 3.0 9.0 0.00 0.00 0.00 44 1013.7
20260508175419 75 192 3.0 8.0 0.00 0.00 0.00 44 1013.8
20260508174919 74 257 3.0 8.0 0.00 0.00 0.00 49 1014.0
20260508174419 73 87 1.0 8.0 0.00 0.00 0.00 42 1014.0
20260508173919 73 128 1.0 7.0 0.00 0.00 0.00 44 1014.1
20260508173419 72 108 0.0 7.0 0.00 0.00 0.00 42 1014.2
20260508172419 73 202 3.0 7.0 0.00 0.00 0.00 43 1014.6
20260508171919 73 169 1.0 7.0 0.00 0.00 0.00 48 1014.7
20260508171419 73 126 2.0 7.0 0.00 0.00 0.00 43 1014.8
20260508165919 73 215 2.0 10.0 0.00 0.00 0.00 40 1015.1
20260508165419 73 211 6.0 10.0 0.00 0.00 0.00 45 1015.1
20260508164919 72 82 1.0 10.0 0.00 0.00 0.00 42 1015.2
20260508163919 72 122 0.0 8.0 0.00 0.00 0.00 40 1015.3
20260508163418 72 74 3.0 9.0 0.00 0.00 0.00 43 1015.4
20260508162918 72 188 6.0 9.0 0.00 0.00 0.00 42 1015.5
20260508162418 71 122 3.0 7.0 0.00 0.00 0.00 48 1015.6
20260508161918 71 178 4.0 7.0 0.00 0.00 0.00 45 1015.6
20260508155918 71 195 6.0 7.0 0.00 0.00 0.00 47 1015.8
20260508155418 72 236 3.0 7.0 0.00 0.00 0.00 48 1015.7
20260508154918 71 219 0.0 8.0 0.00 0.00 0.00 46 1015.7
20260508154418 71 147 1.0 8.0 0.00 0.00 0.00 47 1015.7
20260508153918 72 202 0.0 8.0 0.00 0.00 0.00 51 1015.9
20260508153418 71 241 1.0 8.0 0.00 0.00 0.00 53 1015.9
20260508152918 70 178 2.0 8.0 0.00 0.00 0.00 52 1016.0
20260508152418 70 221 1.0 6.0 0.00 0.00 0.00 52 1016.0
20260508151918 70 111 4.0 6.0 0.00 0.00 0.00 51 1016.1
20260508151418 69 190 1.0 7.0 0.00 0.00 0.00 55 1016.1
20260508150918 69 180 2.0 9.0 0.00 0.00 0.00 53 1016.3
20260508150418 69 168 5.0 9.0 0.00 0.00 0.00 55 1016.5
20260508145918 69 193 6.0 6.0 0.00 0.00 0.00 52 1016.4
20260508145418 69 247 1.0 6.0 0.00 0.00 0.00 54 1016.4
20260508144418 68 216 3.0 10.0 0.00 0.00 0.00 57 1016.5
20260508143918 67 122 1.0 7.0 0.00 0.00 0.00 57 1016.5
20260508143417 67 225 5.0 7.0 0.00 0.00 0.00 56 1016.6
20260508142918 67 126 2.0 7.0 0.00 0.00 0.00 57 1016.7
20260508142418 67 167 4.0 7.0 0.00 0.00 0.00 55 1016.7
20260508140917 66 155 1.0 9.0 0.00 0.00 0.00 61 1016.7
20260508140417 65 188 4.0 9.0 0.00 0.00 0.00 60 1016.7
20260508135917 64 214 4.0 6.0 0.00 0.00 0.00 68 1016.7